TimeCST,TemperatureF,Dew PointF,Humidity,Sea Level PressureIn,VisibilityMPH,Wind Direction,Wind SpeedMPH,Gust SpeedMPH,PrecipitationIn,Events,Conditions,WindDirDegrees,DateUTC
12:52 AM,8.1,-2.9,61,30.52,10.0,North,15.0,-,N/A,,Clear,10,2013-01-24 06:52:00
1:52 AM,7.0,-2.9,64,30.54,10.0,North,9.2,-,N/A,,Clear,350,2013-01-24 07:52:00
2:52 AM,6.1,-5.1,60,30.57,10.0,North,10.4,-,N/A,,Clear,360,2013-01-24 08:52:00
3:52 AM,5.0,-6.0,61,30.59,10.0,North,11.5,-,N/A,,Clear,10,2013-01-24 09:52:00
4:52 AM,3.9,-7.1,60,30.62,10.0,North,11.5,-,N/A,,Clear,10,2013-01-24 10:52:00
5:52 AM,3.9,-6.0,64,30.63,10.0,NNE,9.2,-,N/A,,Clear,20,2013-01-24 11:52:00
6:52 AM,3.9,-6.0,64,30.65,10.0,NE,8.1,-,N/A,,Clear,40,2013-01-24 12:52:00
7:52 AM,5.0,-7.1,58,30.67,10.0,NE,10.4,-,N/A,,Clear,40,2013-01-24 13:52:00
8:52 AM,6.1,-6.0,58,30.70,10.0,NE,10.4,-,N/A,,Clear,40,2013-01-24 14:52:00
9:52 AM,8.1,-5.1,55,30.68,10.0,ENE,11.5,-,N/A,,Clear,70,2013-01-24 15:52:00
10:52 AM,10.9,-4.0,51,30.67,10.0,East,9.2,-,N/A,,Clear,100,2013-01-24 16:52:00
11:52 AM,12.9,-4.0,47,30.65,10.0,Variable,5.8,-,N/A,,Clear,0,2013-01-24 17:52:00
12:52 PM,15.1,-4.0,43,30.61,10.0,ESE,6.9,-,N/A,,Clear,110,2013-01-24 18:52:00
1:52 PM,17.1,-2.9,41,30.57,10.0,SE,6.9,-,N/A,,Clear,140,2013-01-24 19:52:00
2:52 PM,18.0,-2.9,40,30.55,10.0,ESE,8.1,-,N/A,,Clear,110,2013-01-24 20:52:00
3:52 PM,18.0,-0.9,44,30.51,10.0,East,11.5,-,N/A,,Clear,100,2013-01-24 21:52:00
4:52 PM,18.0,1.0,48,30.48,10.0,ESE,10.4,-,N/A,,Clear,110,2013-01-24 22:52:00
5:52 PM,19.0,1.9,47,30.46,10.0,SE,13.8,-,N/A,,Clear,130,2013-01-24 23:52:00
6:52 PM,19.0,3.0,50,30.46,10.0,SE,11.5,-,N/A,,Clear,140,2013-01-25 00:52:00
7:52 PM,19.0,5.0,54,30.41,10.0,ESE,9.2,-,N/A,,Clear,120,2013-01-25 01:52:00
8:52 PM,19.0,6.1,57,30.39,10.0,ESE,8.1,-,N/A,,Clear,110,2013-01-25 02:52:00
9:52 PM,19.9,7.0,57,30.38,10.0,SE,9.2,-,N/A,,Clear,130,2013-01-25 03:52:00
10:52 PM,21.0,7.0,55,30.35,10.0,SSE,13.8,-,N/A,,Clear,150,2013-01-25 04:52:00
11:52 PM,21.0,7.0,55,30.30,10.0,SE,12.7,-,N/A,,Mostly Cloudy,130,2013-01-25 05:52:00